Location: Prague
(50.0830°N, 14.4670°E)
Time: 09:24:56
(UTC+02:00)

RS-15 - Pass Details

Date: 05 April 2023
Orbit: 1885 x 2159 km, 64.8° (Epoch: 29 May)

Event Time Altitude Azimuth Distance (km) Brightness Sun altitude
Rises 02:50:12 0° 319° (NW) 5,603 10.7 -29.6°
Reaches altitude 10° 02:54:59 10° 304° (NW) 4,554 10.0 -29.2°
Enters shadow 03:01:47 20° 268° (W) 3,752 9.2 -28.6°
